Find Kiku-1

NORAD ID: 8197 Int'l Des: 1975-082 Owner: NASDA Country: J operational
LEOCIRCULAR

Current View

Loading 3D Globe...

About Kiku-1

Description loading...

Upcoming Passes

Passes for default location (London). Set your location on the main map for personalized predictions.

Altitude History

Loading altitude history...

Two-Line Element Set

1 8197U 75082A 26149.50715542 -.00000111 00000-0 20026-4 0 9996
2 8197 46.9899 317.3940 0085619 2.6288 36.4046 13.59602562519876
Epoch: May 29, 2026 • Age: 17 hours

Current Status

Altitude 1012.4 km
Velocity 7.36 km/s
Sub-Earth Point -34.95°S, 54.23°W
Type other

Most Searched